Regional Weather Roundup
Issued by NWS

Home | Current Version | Previous Version | Graphics & Text | Print | Product List | Glossary On
Versions: 1 2 3 4 5 6 7 8 9 10 11 12 13 14 15 16 17 18 19 20 21 22 23 24 25 26 27 28 29 30 31 32 33 34 35 36 37 38 39 40 41 42 43 44 45 46 47 48
000
ASUS43 KDMX 291607
RWRIA

WEATHER ROUNDUP FOR IOWA
NATIONAL WEATHER SERVICE DES MOINES IA
1100 AM CDT SAT AUG 29 2015

NOTE: "FAIR" INDICATES FEW OR NO CLOUDS BELOW 12,000 FEET WITH NO
SIGNIFICANT WEATHER AND/OR OBSTRUCTIONS TO VISIBILITY.

* - THESE STATIONS ARE NOT NWS STATIONS...THUS NOT UNDER NWS
QUALITY CONTROL.  THEY ALSO DO NOT REPORT WEATHER SUCH
AS PRECIPITATION OR FOG.

IAZ001>003-012>014-020>022-031>034-043>046-291700-
   NORTHWEST IOWA

CITY           SKY/WX    TMP DP  RH WIND       PRES   REMARKS
CARROLL *      CLOUDY    61  61 100 N9        30.08R
CHEROKEE *     CLOUDY    61  61 100 CALM      30.09R
DENISON *      PTSUNNY   63  61  94 NE5       30.07R
LE MARS *      CLOUDY    59  57  94 CALM      30.10R FOG
ORANGE CITY *  CLOUDY    59  59 100 CALM      30.09R FOG
SHELDON *      CLOUDY    61  59  94 CALM      30.08R
SIOUX CITY     CLOUDY    63  57  81 CALM      30.09R
SPENCER        CLOUDY    62  57  83 CALM      30.09R
STORM LAKE *   CLOUDY    61  59  94 NE6       30.09S FOG
$$

IAZ055>058-069>071-079>083-090>094-291700-
   SOUTHWEST IOWA

CITY           SKY/WX    TMP DP  RH WIND       PRES   REMARKS
ATLANTIC *     CLOUDY    66  63  88 N7        30.06R
AUDUBON *      CLOUDY    66  63  88 N7        30.08R
CLARINDA *     CLOUDY    64  64 100 N7        30.07R
COUNCIL BLFS * CLOUDY    61  59  94 N8        30.08R
CRESTON *      CLOUDY    66  63  88 N7        30.06R
HARLAN  *      CLOUDY    64 N/A N/A N5        30.10S
LAMONI         CLOUDY    69  65  86 N8        30.03R
RED OAK *      CLOUDY    64  63  94 N9        30.07R
SHENANDOAH *   CLOUDY    63  61  94 N7G13     30.07R
$$

IAZ047>049-059>061-072>074-084-291700-
   CENTRAL IOWA

CITY           SKY/WX    TMP DP  RH WIND       PRES   REMARKS
AMES           CLOUDY    65  62  90 NE12      30.05R
ANKENY *       CLOUDY    66  64  94 N9        30.04R
CHARITON *     CLOUDY    68  64  88 N8        30.03R
DES MOINES     CLOUDY    67  62  84 NE7       30.03R
GRINNELL*      CLOUDY    68  64  88 N8        30.04R
KNOXVILLE *    CLOUDY    66  64  94 N8        30.02R
MARSHALLTOWN   CLOUDY    68  64  87 N8        30.03R
PELLA *        CLOUDY    68  68 100 N6        30.03S
PERRY *        CLOUDY    66  64  94 N8        30.06R
$$

IAZ004>006-015-016-023>025-035-036-291700-
   NORTH CENTRAL IOWA

CITY           SKY/WX    TMP DP  RH WIND       PRES   REMARKS
ALGONA *       CLOUDY    59  59 100 NE7       30.09S FOG
CLARION *      CLOUDY    64  61  88 NE7       30.07S
ESTHERVILLE    CLOUDY    58  58 100 VRB3      30.09R
FORT DODGE *   CLOUDY    63  57  82 N6        30.09R
MASON CITY     CLOUDY    65  62  90 NE6       30.08R
FOREST CITY *  CLOUDY    61  61 100 N5        30.08S
IOWA FALLS *   CLOUDY    64  64 100 NE7       30.06S
$$

IAZ007>011-017>019-026>030-037>042-050>054-066-291700-
   NORTHEAST IOWA

CITY           SKY/WX    TMP DP  RH WIND       PRES   REMARKS
CEDAR RAPIDS   CLOUDY    72  68  87 NE10      30.00S FOG
CHARLES CITY * CLOUDY    63  63 100 NE6       30.07S
CLINTON *      CLOUDY    68  64  88 CALM      30.04R
DECORAH *      CLOUDY    63  63 100 N5        30.04S
DUBUQUE        CLOUDY    70  65  84 NE9       30.02S
MONTICELLO *   CLOUDY    72  66  83 NE7G14    30.01R
OELWEIN *        N/A     66  63  88 NE7       30.04S
WATERLOO       CLOUDY    67  63  87 N7        30.03R
$$

IAZ064-065-067-068-078-291700-
   EAST CENTRAL IOWA

CITY           SKY/WX    TMP DP  RH WIND       PRES   REMARKS
DAVENPORT      CLOUDY    69  65  86 CALM      30.02R
IOWA CITY      CLOUDY    70  68  93 N6        30.01S FOG
MT. PLEASANT * CLOUDY    75  64  69 CALM      30.00S
MUSCATINE *    CLOUDY    72  66  83 NW5       30.01R
QUAD CITIES    CLOUDY    70  65  84 CALM      30.01R
$$

IAZ062-063-075>077-085>089-095>099-291700-
   SOUTHEAST IOWA

CITY           SKY/WX    TMP DP  RH WIND       PRES   REMARKS
BURLINGTON     CLOUDY    74  66  76 CALM      30.00R
FAIRFIELD *    PTSUNNY   72  66  83 NW7       30.01R
FORT MADISON * CLOUDY    73  66  78 CALM      30.01R
KEOKUK *       CLOUDY    73  64  73 SW5       30.00R
OSKALOOSA *    CLOUDY    70  68  94 N8        30.02R
CENTERVILLE *  CLOUDY    68  66  94 N8        30.04R
OTTUMWA        CLOUDY    70  69  97 NW7       30.00R FOG
WASHINGTON *     N/A    N/A N/A N/A MISG        N/A
$$

ABBREVIATIONS USED IN REMARKS
   TC - TEMPERATURES IN CELSIUS
  WCI - WIND CHILL INDEX
   HX - HEAT INDEX
  VSB - VISIBILITY
$$




USA.gov is the U.S. government's official web portal to all federal, state and local government web resources and services.